Date,TemperatureHighF,TemperatureAvgF,TemperatureLowF,DewpointHighF,DewpointAvgF,DewpointLowF,HumidityHigh,HumidityAvg,HumidityLow,PressureMaxIn,PressureMinIn,WindSpeedMaxMPH,WindSpeedAvgMPH,GustSpeedMaxMPH,PrecipitationSumIn
2013-1-1,41,33,25,-100,-100,-100,0,0,100,0.00,40.00,0,-999,0,0.00
2013-1-2,40,30,22,-100,-100,-100,0,0,100,0.00,40.00,0,-999,0,0.00
2013-1-3,41,30,21,-100,-100,-100,0,0,100,0.00,40.00,0,-999,0,0.00
2013-1-4,41,29,20,-100,-100,-100,0,0,100,0.00,40.00,0,-999,0,0.00
2013-1-5,41,30,20,-100,-100,-100,0,0,100,0.00,40.00,0,-999,0,0.00
2013-1-6,38,30,23,-100,-100,-100,0,0,100,0.00,40.00,0,-999,0,0.00
2013-1-7,45,34,27,-100,-100,-100,0,0,100,0.00,40.00,0,-999,0,0.00
2013-1-8,47,35,25,-100,-100,-100,0,0,100,0.00,40.00,0,-999,0,0.00
2013-1-9,50,37,26,-100,-100,-100,0,0,100,0.00,40.00,0,-999,0,0.00
2013-1-10,48,37,31,-100,-100,-100,0,0,100,0.00,40.00,0,-999,0,0.00
2013-1-11,39,34,28,-100,-100,-100,0,0,100,0.00,40.00,0,-999,0,0.00
2013-1-12,34,28,22,-100,-100,-100,0,0,100,0.00,40.00,0,-999,0,0.00
2013-1-13,31,27,21,-100,-100,-100,0,0,100,0.00,40.00,0,-999,0,0.00
2013-1-14,31,25,18,-100,-100,-100,0,0,100,0.00,40.00,0,-999,0,0.00
2013-1-15,34,25,16,-100,-100,-100,0,0,100,0.00,40.00,0,-999,0,0.00
2013-1-16,40,29,20,-100,-100,-100,0,0,100,0.00,40.00,0,-999,0,0.00
2013-1-17,44,31,20,-100,-100,-100,0,0,100,0.00,40.00,0,-999,0,0.00
2013-1-18,45,32,21,-100,-100,-100,0,0,100,0.00,40.00,0,-999,0,0.00
2013-1-19,47,33,22,-100,-100,-100,0,0,100,0.00,40.00,0,-999,0,0.00
2013-1-20,47,34,23,-100,-100,-100,0,0,100,0.00,40.00,0,-999,0,0.00
2013-1-21,48,34,23,-100,-100,-100,0,0,100,0.00,40.00,0,-999,0,0.00
2013-1-22,50,35,24,-100,-100,-100,0,0,100,0.00,40.00,0,-999,0,0.00
2013-1-23,46,36,26,-100,-100,-100,0,0,100,0.00,40.00,0,-999,0,0.00
2013-1-24,47,43,38,-100,-100,-100,0,0,100,0.00,40.00,0,-999,0,0.00
2013-1-25,52,47,43,-100,-100,-100,0,0,100,0.00,40.00,0,-999,0,0.00
2013-1-26,48,44,42,-100,-100,-100,0,0,100,0.00,40.00,0,-999,0,0.00
2013-1-27,50,44,41,-100,-100,-100,0,0,100,0.00,40.00,0,-999,0,0.00
2013-1-28,48,43,36,-100,-100,-100,0,0,100,0.00,40.00,0,-999,0,0.00
2013-1-29,46,38,32,-100,-100,-100,0,0,100,0.00,40.00,0,-999,0,0.00
2013-1-30,54,44,36,-100,-100,-100,0,0,100,0.00,40.00,0,-999,0,0.00
2013-1-31,54,45,33,-100,-100,-100,0,0,100,0.00,40.00,0,-999,0,0.00
2013-2-1,54,42,32,-100,-100,-100,0,0,100,0.00,40.00,0,-999,0,0.00
2013-2-2,52,43,33,-100,-100,-100,0,0,100,0.00,40.00,0,-999,0,0.00
2013-2-3,51,43,39,-100,-100,-100,0,0,100,0.00,40.00,0,-999,0,0.00
2013-2-4,54,42,32,-100,-100,-100,0,0,100,0.00,40.00,0,-999,0,0.00
2013-2-5,56,44,34,-100,-100,-100,0,0,100,0.00,40.00,0,-999,0,0.00
2013-2-6,60,47,38,-100,-100,-100,0,0,100,0.00,40.00,0,-999,0,0.00
2013-2-7,58,46,37,-100,-100,-100,0,0,100,0.00,40.00,0,-999,0,0.00
2013-2-8,58,47,37,-100,-100,-100,0,0,100,0.00,40.00,0,-999,0,0.00
2013-2-9,48,42,36,-100,-100,-100,0,0,100,0.00,40.00,0,-999,0,0.00
2013-2-10,43,39,32,-100,-100,-100,0,0,100,0.00,40.00,0,-999,0,0.00
2013-2-11,43,36,29,-100,-100,-100,0,0,100,0.00,40.00,0,-999,0,0.00
2013-2-12,45,38,31,-100,-100,-100,0,0,100,0.00,40.00,0,-999,0,0.00
2013-2-13,51,39,28,-100,-100,-100,0,0,100,0.00,40.00,0,-999,0,0.00
2013-2-14,56,43,30,-100,-100,-100,0,0,100,0.00,40.00,0,-999,0,0.00
2013-2-15,56,44,32,-100,-100,-100,0,0,100,0.00,40.00,0,-999,0,0.00
2013-2-16,59,44,31,-100,-100,-100,0,0,100,0.00,40.00,0,-999,0,0.00
2013-2-17,65,48,35,-100,-100,-100,0,0,100,0.00,40.00,0,-999,0,0.00
2013-2-18,53,47,40,-100,-100,-100,0,0,100,0.00,40.00,0,-999,0,0.00
2013-2-19,53,41,31,-100,-100,-100,0,0,100,0.00,40.00,0,-999,0,0.00
2013-2-20,50,45,41,-100,-100,-100,0,0,100,0.00,40.00,0,-999,0,0.00
2013-2-21,50,46,41,-100,-100,-100,0,0,100,0.00,40.00,0,-999,0,0.00
2013-2-22,52,42,32,-100,-100,-100,0,0,100,0.00,40.00,0,-999,0,0.00
2013-2-23,56,41,33,-100,-100,-100,0,0,100,0.00,40.00,0,-999,0,0.00
2013-2-24,47,40,34,-100,-100,-100,0,0,100,0.00,40.00,0,-999,0,0.00
2013-2-25,52,42,31,-100,-100,-100,0,0,100,0.00,40.00,0,-999,0,0.00
2013-2-26,51,45,39,-100,-100,-100,0,0,100,0.00,40.00,0,-999,0,0.00
2013-2-27,49,40,29,-100,-100,-100,0,0,100,0.00,40.00,0,-999,0,0.00
2013-2-28,56,42,28,-100,-100,-100,0,0,100,0.00,40.00,0,-999,0,0.00
2013-3-1,66,48,33,-100,-100,-100,0,0,100,0.00,40.00,0,-999,0,0.00
2013-3-2,66,51,36,-100,-100,-100,0,0,100,0.00,40.00,0,-999,0,0.00
2013-3-3,73,56,42,-100,-100,-100,0,0,100,0.00,40.00,0,-999,0,0.00
2013-3-4,67,58,50,-100,-100,-100,0,0,100,0.00,40.00,0,-999,0,0.00
2013-3-5,61,51,38,-100,-100,-100,0,0,100,0.00,40.00,0,-999,0,0.00
2013-3-6,72,54,36,-100,-100,-100,0,0,100,0.00,40.00,0,-999,0,0.00
2013-3-7,73,58,42,-100,-100,-100,0,0,100,0.00,40.00,0,-999,0,0.00
2013-3-8,59,52,41,-100,-100,-100,0,0,100,0.00,40.00,0,-999,0,0.00
2013-3-9,50,43,35,-100,-100,-100,0,0,100,0.00,40.00,0,-999,0,0.00
2013-3-10,58,50,43,-100,-100,-100,0,0,100,0.00,40.00,0,-999,0,0.00
2013-3-11,63,51,38,-100,-100,-100,0,0,100,0.00,40.00,0,-999,0,0.00
2013-3-12,67,55,41,-100,-100,-100,0,0,100,0.00,40.00,0,-999,0,0.00
2013-3-13,72,57,42,-100,-100,-100,0,0,100,0.00,40.00,0,-999,0,0.00
2013-3-14,75,59,44,-100,-100,-100,0,0,100,0.00,40.00,0,-999,0,0.00
2013-3-15,78,62,46,-100,-100,-100,0,0,100,0.00,40.00,0,-999,0,0.00
2013-3-16,76,65,55,-100,-100,-100,0,0,100,0.00,40.00,0,-999,0,0.00
2013-3-17,74,63,52,-100,-100,-100,0,0,100,0.00,40.00,0,-999,0,0.00
2013-3-18,72,61,47,-100,-100,-100,0,0,100,0.00,40.00,0,-999,0,0.00
2013-3-19,66,61,55,-100,-100,-100,0,0,100,0.00,40.00,0,-999,0,0.00
2013-3-20,73,60,48,-100,-100,-100,0,0,100,0.00,40.00,0,-999,0,0.00
2013-3-21,73,63,52,-100,-100,-100,0,0,100,0.00,40.00,0,-999,0,0.00
2013-3-22,69,58,49,-100,-100,-100,0,0,100,0.00,40.00,0,-999,0,0.00
2013-3-23,52,46,38,-100,-100,-100,0,0,100,0.00,40.00,0,-999,0,0.00
2013-3-24,61,50,37,-100,-100,-100,0,0,100,0.00,40.00,0,-999,0,0.00
2013-3-25,63,53,41,-100,-100,-100,0,0,100,0.00,40.00,0,-999,0,0.00
2013-3-26,67,55,44,-100,-100,-100,0,0,100,0.00,40.00,0,-999,0,0.00
2013-3-27,76,60,44,-100,-100,-100,0,0,100,0.00,40.00,0,-999,0,0.00
2013-3-28,76,65,48,-100,-100,-100,0,0,100,0.00,40.00,0,-999,0,0.00
2013-3-29,79,68,53,-100,-100,-100,0,0,100,0.00,40.00,0,-999,0,0.00
2013-3-30,77,66,50,-100,-100,-100,0,0,100,0.00,40.00,0,-999,0,0.00
2013-3-31,78,66,52,-100,-100,-100,0,0,100,0.00,40.00,0,-999,0,0.00
2013-4-1,76,64,50,-100,-100,-100,0,0,100,0.00,40.00,0,-999,0,0.00
2013-4-2,67,58,47,-100,-100,-100,0,0,100,0.00,40.00,0,-999,0,0.00
2013-4-3,75,62,49,-100,-100,-100,0,0,100,0.00,40.00,0,-999,0,0.00
2013-4-4,80,66,48,-100,-100,-100,0,0,100,0.00,40.00,0,-999,0,0.00
2013-4-5,81,72,60,-100,-100,-100,0,0,100,0.00,40.00,0,-999,0,0.00
2013-4-6,81,71,57,-100,-100,-100,0,0,100,0.00,40.00,0,-999,0,0.00
2013-4-7,80,69,55,-100,-100,-100,0,0,100,0.00,40.00,0,-999,0,0.00
2013-4-8,68,59,49,-100,-100,-100,0,0,100,0.00,40.00,0,-999,0,0.00
2013-4-9,56,50,46,-100,-100,-100,0,0,100,0.00,40.00,0,-999,0,0.00
2013-4-10,61,51,42,-100,-100,-100,0,0,100,0.00,40.00,0,-999,0,0.00
2013-4-11,69,58,46,-100,-100,-100,0,0,100,0.00,40.00,0,-999,0,0.00
2013-4-12,74,61,45,-100,-100,-100,0,0,100,0.00,40.00,0,-999,0,0.00
2013-4-13,81,66,47,-100,-100,-100,0,0,100,0.00,40.00,0,-999,0,0.00
2013-4-14,81,71,61,-100,-100,-100,0,0,100,0.00,40.00,0,-999,0,0.00
2013-4-15,80,72,62,-100,-100,-100,0,0,100,0.00,40.00,0,-999,0,0.00
2013-4-16,67,60,50,-100,-100,-100,0,0,100,0.00,40.00,0,-999,0,0.00
2013-4-17,56,50,45,-100,-100,-100,0,0,100,0.00,40.00,0,-999,0,0.00
2013-4-18,60,52,43,-100,-100,-100,0,0,100,0.00,40.00,0,-999,0,0.00
2013-4-19,70,57,40,-100,-100,-100,0,0,100,0.00,40.00,0,-999,0,0.00
2013-4-20,74,66,56,-100,-100,-100,0,0,100,0.00,40.00,0,-999,0,0.00
2013-4-21,83,66,49,-100,-100,-100,0,0,100,0.00,40.00,0,-999,0,0.00
2013-4-22,86,71,53,-100,-100,-100,0,0,100,0.00,40.00,0,-999,0,0.00
2013-4-23,68,60,53,-100,-100,-100,0,0,100,0.00,40.00,0,-999,0,0.00
2013-4-24,73,60,45,-100,-100,-100,0,0,100,0.00,40.00,0,-999,0,0.00
2013-4-25,76,64,48,-100,-100,-100,0,0,100,0.00,40.00,0,-999,0,0.00
2013-4-26,82,69,51,-100,-100,-100,0,0,100,0.00,40.00,0,-999,0,0.00
2013-4-27,82,71,53,-100,-100,-100,0,0,100,0.00,40.00,0,-999,0,0.00
2013-4-28,88,71,51,-100,-100,-100,0,0,100,0.00,40.00,0,-999,0,0.00
2013-4-29,93,77,59,-100,-100,-100,0,0,100,0.00,40.00,0,-999,0,0.00
2013-4-30,93,85,73,-100,-100,-100,0,0,100,0.00,40.00,0,-999,0,0.00
2013-5-1,77,67,58,-100,-100,-100,0,0,100,0.00,40.00,0,-999,0,0.00
2013-5-2,68,60,53,-100,-100,-100,0,0,100,0.00,40.00,0,-999,0,0.00
2013-5-3,77,61,45,-100,-100,-100,0,0,100,0.00,40.00,0,-999,0,0.00
2013-5-4,86,68,50,-100,-100,-100,0,0,100,0.00,40.00,0,-999,0,0.00
2013-5-5,79,71,62,-100,-100,-100,0,0,100,0.00,40.00,0,-999,0,0.00
2013-5-6,74,68,60,-100,-100,-100,0,0,100,0.00,40.00,0,-999,0,0.00
2013-5-7,71,64,52,-100,-100,-100,0,0,100,0.00,40.00,0,-999,0,0.00
2013-5-8,71,60,51,-100,-100,-100,0,0,100,0.00,40.00,0,-999,0,0.00
2013-5-9,68,62,53,-100,-100,-100,0,0,100,0.00,40.00,0,-999,0,0.00
2013-5-10,80,68,52,-100,-100,-100,0,0,100,0.00,40.00,0,-999,0,0.00
2013-5-11,84,72,57,-100,-100,-100,0,0,100,0.00,40.00,0,-999,0,0.00
2013-5-12,89,74,57,-100,-100,-100,0,0,100,0.00,40.00,0,-999,0,0.00
2013-5-13,93,79,60,-100,-100,-100,0,0,100,0.00,40.00,0,-999,0,0.00
2013-5-14,97,84,66,-100,-100,-100,0,0,100,0.00,40.00,0,-999,0,0.00
2013-5-15,92,82,68,-100,-100,-100,0,0,100,0.00,40.00,0,-999,0,0.00
2013-5-16,93,80,63,-100,-100,-100,0,0,100,0.00,40.00,0,-999,0,0.00
2013-5-17,84,76,66,-100,-100,-100,0,0,100,0.00,40.00,0,-999,0,0.00
2013-5-18,80,70,59,-100,-100,-100,0,0,100,0.00,40.00,0,-999,0,0.00
2013-5-19,80,70,64,-100,-100,-100,0,0,100,0.00,40.00,0,-999,0,0.00
2013-5-20,79,69,59,-100,-100,-100,0,0,100,0.00,40.00,0,-999,0,0.00
2013-5-21,86,76,58,-100,-100,-100,0,0,100,0.00,40.00,0,-999,0,0.00
2013-5-22,94,81,62,-100,-100,-100,0,0,100,0.00,40.00,0,-999,0,0.00
2013-5-23,92,81,69,-100,-100,-100,0,0,100,0.00,40.00,0,-999,0,0.00
2013-5-24,91,77,60,-100,-100,-100,0,0,100,0.00,40.00,0,-999,0,0.00
2013-5-25,93,81,63,-100,-100,-100,0,0,100,0.00,40.00,0,-999,0,0.00
2013-5-26,91,79,64,-100,-100,-100,0,0,100,0.00,40.00,0,-999,0,0.00
2013-5-27,89,79,65,-100,-100,-100,0,0,100,0.00,40.00,0,-999,0,0.00
2013-5-28,87,78,69,-100,-100,-100,0,0,100,0.00,40.00,0,-999,0,0.00
2013-5-29,86,73,63,-100,-100,-100,0,0,100,0.00,40.00,0,-999,0,0.00
2013-5-30,72,66,63,-100,-100,-100,0,0,100,0.00,40.00,0,-999,0,0.00
2013-5-31,92,87,79,-100,-100,-100,0,0,100,0.00,40.00,0,-999,0,0.00
2013-6-1,87,78,64,-100,-100,-100,0,0,100,0.00,40.00,0,-999,0,0.00
2013-6-2,99,82,62,-100,-100,-100,0,0,100,0.00,40.00,0,-999,0,0.00
2013-6-3,98,86,69,-100,-100,-100,0,0,100,0.00,40.00,0,-999,0,0.00
2013-6-4,99,87,71,-100,-100,-100,0,0,100,0.00,40.00,0,-999,0,0.00
2013-6-5,98,88,71,-100,-100,-100,0,0,100,0.00,40.00,0,-999,0,0.00
2013-6-6,100,90,73,-100,-100,-100,0,0,100,0.00,40.00,0,-999,0,0.00
2013-6-7,103,88,71,-100,-100,-100,0,0,100,0.00,40.00,0,-999,0,0.00
2013-6-8,106,91,71,-100,-100,-100,0,0,100,0.00,40.00,0,-999,0,0.00
2013-6-9,106,94,74,-100,-100,-100,0,0,100,0.00,40.00,0,-999,0,0.00
2013-6-10,103,94,78,-100,-100,-100,0,0,100,0.00,40.00,0,-999,0,0.00
2013-6-11,101,91,78,-100,-100,-100,0,0,100,0.00,40.00,0,-999,0,0.00
2013-6-12,101,90,76,-100,-100,-100,0,0,100,0.00,40.00,0,-999,0,0.00
2013-6-13,103,91,79,-100,-100,-100,0,0,100,0.00,40.00,0,-999,0,0.00
2013-6-14,100,87,69,-100,-100,-100,0,0,100,0.00,40.00,0,-999,0,0.00
2013-6-15,100,87,71,-100,-100,-100,0,0,100,0.00,40.00,0,-999,0,0.00
2013-6-16,99,86,72,-100,-100,-100,0,0,100,0.00,40.00,0,-999,0,0.00
2013-6-17,100,87,71,-100,-100,-100,0,0,100,0.00,40.00,0,-999,0,0.00
2013-6-18,101,87,68,-100,-100,-100,0,0,100,0.00,40.00,0,-999,0,0.00
2013-6-19,99,89,76,-100,-100,-100,0,0,100,0.00,40.00,0,-999,0,0.00
2013-6-20,95,78,66,-100,-100,-100,0,0,100,0.00,40.00,0,-999,0,0.00
2013-6-22,99,91,73,-100,-100,-100,0,0,100,0.00,40.00,0,-999,0,0.00
2013-6-23,97,86,69,-100,-100,-100,0,0,100,0.00,40.00,0,-999,0,0.00
2013-6-24,94,86,78,-100,-100,-100,0,0,100,0.00,40.00,0,-999,0,0.00
2013-6-25,97,85,69,-100,-100,-100,0,0,100,0.00,40.00,0,-999,0,0.00
2013-6-26,103,91,75,-100,-100,-100,0,0,100,0.00,40.00,0,-999,0,0.00
2013-6-27,107,96,81,-100,-100,-100,0,0,100,0.00,40.00,0,-999,0,0.00
2013-6-28,111,98,81,-100,-100,-100,0,0,100,0.00,40.00,0,-999,0,0.00
2013-6-29,110,98,86,-100,-100,-100,0,0,100,0.00,40.00,0,-999,0,0.00
2013-6-30,108,94,80,-100,-100,-100,0,0,100,0.00,40.00,0,-999,0,0.00
2013-7-1,106,94,80,-100,-100,-100,0,0,100,0.00,40.00,0,-999,0,0.00
2013-7-2,106,96,85,-100,-100,-100,0,0,100,0.00,40.00,0,-999,0,0.00
2013-7-3,107,96,82,-100,-100,-100,0,0,100,0.00,40.00,0,-999,0,0.00
2013-7-4,106,96,87,-100,-100,-100,0,0,100,0.00,40.00,0,-999,0,0.00
2013-7-5,102,91,81,-100,-100,-100,0,0,100,0.00,40.00,0,-999,0,0.00
2013-7-6,97,84,80,-100,-100,-100,0,0,100,0.00,40.00,0,-999,0,0.00
2013-7-7,98,84,73,-100,-100,-100,0,0,100,0.00,40.00,0,-999,0,0.00
2013-7-8,101,86,74,-100,-100,-100,0,0,100,0.00,40.00,0,-999,0,0.00
2013-7-9,107,93,77,-100,-100,-100,0,0,100,0.00,40.00,0,-999,0,0.00
2013-7-10,107,95,78,-100,-100,-100,0,0,100,0.00,40.00,0,-999,0,0.00
2013-7-11,95,87,80,-100,-100,-100,0,0,100,0.00,40.00,0,-999,0,0.00
2013-7-12,93,82,74,-100,-100,-100,0,0,100,0.00,40.00,0,-999,0,0.00
2013-7-13,96,84,76,-100,-100,-100,0,0,100,0.00,40.00,0,-999,0,0.00
2013-7-14,100,88,75,-100,-100,-100,0,0,100,0.00,40.00,0,-999,0,0.00
2013-7-15,101,88,79,-100,-100,-100,0,0,100,0.00,40.00,0,-999,0,0.00
2013-7-16,95,84,76,-100,-100,-100,0,0,100,0.00,40.00,0,-999,0,0.00
2013-7-17,99,88,75,-100,-100,-100,0,0,100,0.00,40.00,0,-999,0,0.00
2013-7-18,98,87,80,-100,-100,-100,0,0,100,0.00,40.00,0,-999,0,0.00
2013-7-19,101,89,78,-100,-100,-100,0,0,100,0.00,40.00,0,-999,0,0.00
2013-7-20,101,90,79,-100,-100,-100,0,0,100,0.00,40.00,0,-999,0,0.00
2013-7-21,100,89,81,-100,-100,-100,0,0,100,0.00,40.00,0,-999,0,0.00
2013-7-22,94,86,77,-100,-100,-100,0,0,100,0.00,40.00,0,-999,0,0.00
2013-7-23,95,88,79,-100,-100,-100,0,0,100,0.00,40.00,0,-999,0,0.00
2013-7-24,102,91,78,-100,-100,-100,0,0,100,0.00,40.00,0,-999,0,0.00
2013-7-25,102,92,81,-100,-100,-100,0,0,100,0.00,40.00,0,-999,0,0.00
2013-7-26,102,91,83,-100,-100,-100,0,0,100,0.00,40.00,0,-999,0,0.00
2013-7-27,89,82,74,-100,-100,-100,0,0,100,0.00,40.00,0,-999,0,0.00
2013-7-28,83,78,74,-100,-100,-100,0,0,100,0.00,40.00,0,-999,0,0.00
2013-7-29,92,80,67,-100,-100,-100,0,0,100,0.00,40.00,0,-999,0,0.00
2013-7-30,98,85,69,-100,-100,-100,0,0,100,0.00,40.00,0,-999,0,0.00
2013-7-31,101,88,73,-100,-100,-100,0,0,100,0.00,40.00,0,-999,0,0.00
2013-8-1,94,88,80,-100,-100,-100,0,0,100,0.00,40.00,0,-999,0,0.00
2013-8-2,96,85,76,-100,-100,-100,0,0,100,0.00,40.00,0,-999,0,0.00
2013-8-3,97,85,74,-100,-100,-100,0,0,100,0.00,40.00,0,-999,0,0.00
2013-8-4,99,84,73,-100,-100,-100,0,0,100,0.00,40.00,0,-999,0,0.00
2013-8-5,99,87,72,-100,-100,-100,0,0,100,0.00,40.00,0,-999,0,0.00
2013-8-6,92,86,76,-100,-100,-100,0,0,100,0.00,40.00,0,-999,0,0.00
2013-8-7,81,72,65,-100,-100,-100,0,0,100,0.00,40.00,0,-999,0,0.00
2013-8-8,94,80,66,-100,-100,-100,0,0,100,0.00,40.00,0,-999,0,0.00
2013-8-9,97,84,69,-100,-100,-100,0,0,100,0.00,40.00,0,-999,0,0.00
2013-8-10,89,82,75,-100,-100,-100,0,0,100,0.00,40.00,0,-999,0,0.00
2013-8-11,92,82,75,-100,-100,-100,0,0,100,0.00,40.00,0,-999,0,0.00
2013-8-12,95,83,71,-100,-100,-100,0,0,100,0.00,40.00,0,-999,0,0.00
2013-8-13,99,87,73,-100,-100,-100,0,0,100,0.00,40.00,0,-999,0,0.00
2013-8-14,101,87,71,-100,-100,-100,0,0,100,0.00,40.00,0,-999,0,0.00
2013-8-15,98,84,70,-100,-100,-100,0,0,100,0.00,40.00,0,-999,0,0.00
2013-8-16,101,88,73,-100,-100,-100,0,0,100,0.00,40.00,0,-999,0,0.00
2013-8-17,95,84,77,-100,-100,-100,0,0,100,0.00,40.00,0,-999,0,0.00
2013-8-18,96,83,71,-100,-100,-100,0,0,100,0.00,40.00,0,-999,0,0.00
2013-8-19,99,87,75,-100,-100,-100,0,0,100,0.00,40.00,0,-999,0,0.00
2013-8-20,101,90,78,-100,-100,-100,0,0,100,0.00,40.00,0,-999,0,0.00
2013-8-21,97,84,77,-100,-100,-100,0,0,100,0.00,40.00,0,-999,0,0.00
2013-8-22,95,85,74,-100,-100,-100,0,0,100,0.00,40.00,0,-999,0,0.00
2013-8-23,93,85,78,-100,-100,-100,0,0,100,0.00,40.00,0,-999,0,0.00
2013-8-24,90,81,72,-100,-100,-100,0,0,100,0.00,40.00,0,-999,0,0.00
2013-8-25,76,72,68,-100,-100,-100,0,0,100,0.00,40.00,0,-999,0,0.00
2013-8-26,79,71,67,-100,-100,-100,0,0,100,0.00,40.00,0,-999,0,0.00
2013-8-27,73,70,68,-100,-100,-100,0,0,100,0.00,40.00,0,-999,0,0.00
2013-8-28,91,84,73,-100,-100,-100,0,0,100,0.00,40.00,0,-999,0,0.00
2013-8-29,96,84,70,-100,-100,-100,0,0,100,0.00,40.00,0,-999,0,0.00
2013-8-30,93,85,76,-100,-100,-100,0,0,100,0.00,40.00,0,-999,0,0.00
2013-8-31,87,80,75,-100,-100,-100,0,0,100,0.00,40.00,0,-999,0,0.00
2013-9-1,90,82,74,-100,-100,-100,0,0,100,0.00,40.00,0,-999,0,0.00
2013-9-2,95,85,73,-100,-100,-100,0,0,100,0.00,40.00,0,-999,0,0.00
2013-9-3,98,87,77,-100,-100,-100,0,0,100,0.00,40.00,0,-999,0,0.00
2013-9-4,97,88,79,-100,-100,-100,0,0,100,0.00,40.00,0,-999,0,0.00
2013-9-5,97,87,78,-100,-100,-100,0,0,100,0.00,40.00,0,-999,0,0.00
2013-9-6,96,85,71,-100,-100,-100,0,0,100,0.00,40.00,0,-999,0,0.00
2013-9-7,95,82,71,-100,-100,-100,0,0,100,0.00,40.00,0,-999,0,0.00
2013-9-8,78,73,68,-100,-100,-100,0,0,100,0.00,40.00,0,-999,0,0.00
2013-9-9,75,71,68,-100,-100,-100,0,0,100,0.00,40.00,0,-999,0,0.00
2013-9-10,80,70,66,-100,-100,-100,0,0,100,0.00,40.00,0,-999,0,0.00
2013-9-11,76,69,64,-100,-100,-100,0,0,100,0.00,40.00,0,-999,0,0.00
2013-9-12,82,71,61,-100,-100,-100,0,0,100,0.00,40.00,0,-999,0,0.00
2013-9-13,86,75,63,-100,-100,-100,0,0,100,0.00,40.00,0,-999,0,0.00
2013-9-14,88,77,67,-100,-100,-100,0,0,100,0.00,40.00,0,-999,0,0.00
2013-9-15,85,78,66,-100,-100,-100,0,0,100,0.00,40.00,0,-999,0,0.00
2013-9-16,90,78,67,-100,-100,-100,0,0,100,0.00,40.00,0,-999,0,0.00
2013-9-17,95,82,70,-100,-100,-100,0,0,100,0.00,40.00,0,-999,0,0.00
2013-9-18,86,76,69,-100,-100,-100,0,0,100,0.00,40.00,0,-999,0,0.00
2013-9-19,87,77,64,-100,-100,-100,0,0,100,0.00,40.00,0,-999,0,0.00
2013-9-20,91,76,62,-100,-100,-100,0,0,100,0.00,40.00,0,-999,0,0.00
2013-9-21,92,78,64,-100,-100,-100,0,0,100,0.00,40.00,0,-999,0,0.00
2013-9-22,80,75,70,-100,-100,-100,0,0,100,0.00,40.00,0,-999,0,0.00
2013-9-23,80,72,64,-100,-100,-100,0,0,100,0.00,40.00,0,-999,0,0.00
2013-9-24,86,71,56,-100,-100,-100,0,0,100,0.00,40.00,0,-999,0,0.00
2013-9-25,89,76,63,-100,-100,-100,0,0,100,0.00,40.00,0,-999,0,0.00
2013-9-26,83,74,63,-100,-100,-100,0,0,100,0.00,40.00,0,-999,0,0.00
2013-9-27,70,63,55,-100,-100,-100,0,0,100,0.00,40.00,0,-999,0,0.00
2013-9-28,73,63,51,-100,-100,-100,0,0,100,0.00,40.00,0,-999,0,0.00
2013-9-29,81,66,50,-100,-100,-100,0,0,100,0.00,40.00,0,-999,0,0.00
2013-9-30,86,70,54,-100,-100,-100,0,0,100,0.00,40.00,0,-999,0,0.00
2013-10-1,86,78,69,-100,-100,-100,0,0,100,0.00,40.00,0,-999,0,0.00
2013-10-2,86,71,56,-100,-100,-100,0,0,100,0.00,40.00,0,-999,0,0.00
2013-10-3,85,73,57,-100,-100,-100,0,0,100,0.00,40.00,0,-999,0,0.00
2013-10-4,64,58,51,-100,-100,-100,0,0,100,0.00,40.00,0,-999,0,0.00
2013-10-5,66,58,48,-100,-100,-100,0,0,100,0.00,40.00,0,-999,0,0.00
2013-10-6,73,59,45,-100,-100,-100,0,0,100,0.00,40.00,0,-999,0,0.00
2013-10-7,75,61,48,-100,-100,-100,0,0,100,0.00,40.00,0,-999,0,0.00
2013-10-8,83,66,50,-100,-100,-100,0,0,100,0.00,40.00,0,-999,0,0.00
2013-10-9,77,68,60,-100,-100,-100,0,0,100,0.00,40.00,0,-999,0,0.00
2013-10-10,62,57,50,-100,-100,-100,0,0,100,0.00,40.00,0,-999,0,0.00
2013-10-11,68,58,47,-100,-100,-100,0,0,100,0.00,40.00,0,-999,0,0.00
2013-10-12,72,59,46,-100,-100,-100,0,0,100,0.00,40.00,0,-999,0,0.00
2013-10-13,76,61,46,-100,-100,-100,0,0,100,0.00,40.00,0,-999,0,0.00
2013-10-14,68,61,52,-100,-100,-100,0,0,100,0.00,40.00,0,-999,0,0.00
2013-10-15,65,58,48,-100,-100,-100,0,0,100,0.00,40.00,0,-999,0,0.00
2013-10-16,66,57,46,-100,-100,-100,0,0,100,0.00,40.00,0,-999,0,0.00
2013-10-17,70,56,43,-100,-100,-100,0,0,100,0.00,40.00,0,-999,0,0.00
2013-10-18,69,61,47,-100,-100,-100,0,0,100,0.00,40.00,0,-999,0,0.00
2013-10-19,71,57,44,-100,-100,-100,0,0,100,0.00,40.00,0,-999,0,0.00
2013-10-20,75,58,43,-100,-100,-100,0,0,100,0.00,40.00,0,-999,0,0.00
2013-10-21,72,62,48,-100,-100,-100,0,0,100,0.00,40.00,0,-999,0,0.00
2013-10-22,72,57,44,-100,-100,-100,0,0,100,0.00,40.00,0,-999,0,0.00
2013-10-23,73,58,44,-100,-100,-100,0,0,100,0.00,40.00,0,-999,0,0.00
2013-10-24,73,60,47,-100,-100,-100,0,0,100,0.00,40.00,0,-999,0,0.00
2013-10-25,74,64,55,-100,-100,-100,0,0,100,0.00,40.00,0,-999,0,0.00
2013-10-26,75,61,49,-100,-100,-100,0,0,100,0.00,40.00,0,-999,0,0.00
2013-10-27,74,59,47,-100,-100,-100,0,0,100,0.00,40.00,0,-999,0,0.00
2013-10-28,74,66,60,-100,-100,-100,0,0,100,0.00,40.00,0,-999,0,0.00
2013-10-29,64,55,48,-100,-100,-100,0,0,100,0.00,40.00,0,-999,0,0.00
2013-10-30,59,53,48,-100,-100,-100,0,0,100,0.00,40.00,0,-999,0,0.00
2013-10-31,64,54,42,-100,-100,-100,0,0,100,0.00,40.00,0,-999,0,0.00
2013-11-1,67,55,43,-100,-100,-100,0,0,100,0.00,40.00,0,-999,0,0.00
2013-11-2,66,53,40,-100,-100,-100,0,0,100,0.00,40.00,0,-999,0,0.00
2013-11-3,73,56,43,-100,-100,-100,0,0,100,0.00,40.00,0,-999,0,0.00
2013-11-4,55,52,47,-100,-100,-100,0,0,100,0.00,40.00,0,-999,0,0.00
2013-11-5,54,48,41,-100,-100,-100,0,0,100,0.00,40.00,0,-999,0,0.00
2013-11-6,58,45,32,-100,-100,-100,0,0,100,0.00,40.00,0,-999,0,0.00
2013-11-7,61,48,35,-100,-100,-100,0,0,100,0.00,40.00,0,-999,0,0.00
2013-11-8,65,50,37,-100,-100,-100,0,0,100,0.00,40.00,0,-999,0,0.00
2013-11-9,68,51,38,-100,-100,-100,0,0,100,0.00,40.00,0,-999,0,0.00
2013-11-10,67,51,38,-100,-100,-100,0,0,100,0.00,40.00,0,-999,0,0.00
2013-11-11,67,52,39,-100,-100,-100,0,0,100,0.00,40.00,0,-999,0,0.00
2013-11-12,66,51,39,-100,-100,-100,0,0,100,0.00,40.00,0,-999,0,0.00
2013-11-13,66,52,41,-100,-100,-100,0,0,100,0.00,40.00,0,-999,0,0.00
2013-11-14,66,52,41,-100,-100,-100,0,0,100,0.00,40.00,0,-999,0,0.00
2013-11-15,68,53,40,-100,-100,-100,0,0,100,0.00,40.00,0,-999,0,0.00
2013-11-16,68,53,40,-100,-100,-100,0,0,100,0.00,40.00,0,-999,0,0.00
2013-11-17,64,53,42,-100,-100,-100,0,0,100,0.00,40.00,0,-999,0,0.00
2013-11-18,63,50,40,-100,-100,-100,0,0,100,0.00,40.00,0,-999,0,0.00
2013-11-19,64,52,44,-100,-100,-100,0,0,100,0.00,40.00,0,-999,0,0.00
2013-11-20,54,49,44,-100,-100,-100,0,0,100,0.00,40.00,0,-999,0,0.00
2013-11-21,57,51,47,-100,-100,-100,0,0,100,0.00,40.00,0,-999,0,0.00
2013-11-22,51,42,38,-100,-100,-100,0,0,100,0.00,40.00,0,-999,0,0.00
2013-11-23,42,40,38,-100,-100,-100,0,0,100,0.00,40.00,0,-999,0,0.00
2013-11-24,48,44,40,-100,-100,-100,0,0,100,0.00,40.00,0,-999,0,0.00
2013-11-25,51,42,35,-100,-100,-100,0,0,100,0.00,40.00,0,-999,0,0.00
2013-11-26,51,43,35,-100,-100,-100,0,0,100,0.00,40.00,0,-999,0,0.00
2013-11-27,50,41,35,-100,-100,-100,0,0,100,0.00,40.00,0,-999,0,0.00
2013-11-28,47,42,37,-100,-100,-100,0,0,100,0.00,40.00,0,-999,0,0.00
2013-11-29,46,44,42,-100,-100,-100,0,0,100,0.00,40.00,0,-999,0,0.00
2013-11-30,45,44,43,-100,-100,-100,0,0,100,0.00,40.00,0,-999,0,0.00
2013-12-1,44,43,42,-100,-100,-100,0,0,100,0.00,40.00,0,-999,0,0.00
2013-12-2,48,43,40,-100,-100,-100,0,0,100,0.00,40.00,0,-999,0,0.00
2013-12-3,58,45,35,-100,-100,-100,0,0,100,0.00,40.00,0,-999,0,0.00
2013-12-4,57,39,30,-100,-100,-100,0,0,100,0.00,40.00,0,-999,0,0.00
2013-12-5,36,31,26,-100,-100,-100,0,0,100,0.00,40.00,0,-999,0,0.00
2013-12-6,37,31,25,-100,-100,-100,0,0,100,0.00,40.00,0,-999,0,0.00
2013-12-7,40,34,29,-100,-100,-100,0,0,100,0.00,40.00,0,-999,0,0.00
2013-12-8,35,32,27,-100,-100,-100,0,0,100,0.00,40.00,0,-999,0,0.00
2013-12-9,33,28,24,-100,-100,-100,0,0,100,0.00,40.00,0,-999,0,0.00
2013-12-10,33,26,21,-100,-100,-100,0,0,100,0.00,40.00,0,-999,0,0.00
2013-12-11,36,29,22,-100,-100,-100,0,0,100,0.00,40.00,0,-999,0,0.00
2013-12-12,38,30,23,-100,-100,-100,0,0,100,0.00,40.00,0,-999,0,0.00
2013-12-13,37,31,25,-100,-100,-100,0,0,100,0.00,40.00,0,-999,0,0.00
2013-12-14,45,35,26,-100,-100,-100,0,0,100,0.00,40.00,0,-999,0,0.00
2013-12-15,45,35,27,-100,-100,-100,0,0,100,0.00,40.00,0,-999,0,0.00
2013-12-16,47,36,28,-100,-100,-100,0,0,100,0.00,40.00,0,-999,0,0.00
2013-12-17,46,36,28,-100,-100,-100,0,0,100,0.00,40.00,0,-999,0,0.00
2013-12-18,43,36,30,-100,-100,-100,0,0,100,0.00,40.00,0,-999,0,0.00
2013-12-19,47,39,30,-100,-100,-100,0,0,100,0.00,40.00,0,-999,0,0.00
2013-12-20,49,41,35,-100,-100,-100,0,0,100,0.00,40.00,0,-999,0,0.00
2013-12-21,56,43,34,-100,-100,-100,0,0,100,0.00,40.00,0,-999,0,0.00
2013-12-22,49,42,34,-100,-100,-100,0,0,100,0.00,40.00,0,-999,0,0.00
2013-12-23,51,38,30,-100,-100,-100,0,0,100,0.00,40.00,0,-999,0,0.00
2013-12-24,50,39,30,-100,-100,-100,0,0,100,0.00,40.00,0,-999,0,0.00
2013-12-25,49,37,29,-100,-100,-100,0,0,100,0.00,40.00,0,-999,0,0.00
2013-12-26,47,36,27,-100,-100,-100,0,0,100,0.00,40.00,0,-999,0,0.00
2013-12-27,49,36,28,-100,-100,-100,0,0,100,0.00,40.00,0,-999,0,0.00
2013-12-28,43,35,29,-100,-100,-100,0,0,100,0.00,40.00,0,-999,0,0.00
2013-12-29,49,36,29,-100,-100,-100,0,0,100,0.00,40.00,0,-999,0,0.00
2013-12-30,48,36,27,-100,-100,-100,0,0,100,0.00,40.00,0,-999,0,0.00
2013-12-31,48,37,28,-100,-100,-100,0,0,100,0.00,40.00,0,-999,0,0.00
2014-1-1,51,38,29,-100,-100,-100,0,0,100,0.00,40.00,0,-999,0,0.00
2014-1-2,48,37,28,-100,-100,-100,0,0,100,0.00,40.00,0,-999,0,0.00